Weather Roundup
Issued by NWS Springfield, MO

Home | Current Version | Previous Version | Text Only | Print | Product List | Glossary On
Versions: 1 2 3 4 5 6 7 8 9 10 11 12 13 14 15 16 17 18 19 20 21 22 23 24 25 26 27 28 29 30 31 32 33 34 35 36 37 38 39 40 41 42 43 44 45 46 47 48 49 50
000
NZUS99 KSGF 221707
HRRSGF

HOURLY WEATHER
NATIONAL WEATHER SERVICE SPRINGFIELD MO
1200 PM CDT FRI SEP 22 2017

......SGF CWA......

CITY           SKY/WX    TMP DP  RH WIND       PRES   REMARKS
SPRINGFIELD    SUNNY     86  70  58 S13G18    30.06F HX  90
JOPLIN         SUNNY     85  71  63 S13G24    30.03F HX  90
WEST PLAINS    PTSUNNY   86  67  52 MISG      30.10F
ROLLA          MOSUNNY   88  67  49 S9        30.08F HX  91
OSAGE BEACH    MOSUNNY   86  70  58 S8        30.06S HX  90
BRANSON        MOSUNNY   86  68  54 S5        30.09F

......SURROUNDING SGF CWA......

CITY           SKY/WX    TMP DP  RH WIND       PRES   REMARKS
CHANUTE        SUNNY     85  70  60 S17G23    29.99F
COFFEYVILLE    SUNNY     85  70  60 S16       29.98F
EMPORIA        SUNNY     85  70  60 S16       29.95F
GROVE OK       SUNNY     86  70  58 S12G20    30.04F HX  90
ROGERS AR      CLOUDY    83  69  62 SW10      30.08F
SILOAM SPRINGS PTSUNNY   83  69  62 S13       30.07S
HARRISON AR    SUNNY     86  68  54 S7        30.09F
NEAR YELLVILLE MOSUNNY   86  69  56 VRB5      30.06F HX  90

......KANSAS AND MISSOURI......

CITY           SKY/WX    TMP DP  RH WIND       PRES   REMARKS
KANSAS CTY INT SUNNY     85  72  65 S15       29.98S HX  91
DOWNTOWN KC    SUNNY     87  71  58 S14       29.97S HX  93
COLUMBIA       SUNNY     87  68  52 S10       30.06S HX  90
SEDALIA        SUNNY     87  72  60 S12       30.04F HX  93
ST JOSEPH      SUNNY     88  72  58 S17       29.94F HX  94
ST LOUIS       MOSUNNY   91  67  44 S8        30.06F HX  94
SPIRIT OF STL  MOSUNNY   90  69  50 SE6       30.05F HX  94
KIRKSVILLE     MOSUNNY   86  71  60 SW10      30.03F HX  91
WICHITA        MOSUNNY   88  70  55 S21       29.91F HX  93
TOPEKA         SUNNY     87  73  62 S14       29.94S HX  94
OLATHE         SUNNY     83  71  67 S9        29.99S

......TENNESSEE......

CITY           SKY/WX    TMP DP  RH WIND       PRES   REMARKS
MEMPHIS        MOSUNNY   88  68  51 E5        30.05F HX  91
NASHVILLE      MOSUNNY   87  66  49 CALM      30.07F

......ARKANSAS.......

CITY           SKY/WX    TMP DP  RH WIND       PRES   REMARKS
FAYETTEVILLE   MOSUNNY   81  70  69 S14       30.07S
FT SMITH       MOSUNNY   88  70  55 S10       30.02F HX  93
LITTLE ROCK    MOSUNNY   89  72  56 S5        30.04F HX  96

......OKLAHOMA.......

CITY           SKY/WX    TMP DP  RH WIND       PRES   REMARKS
TULSA          MOSUNNY   87  70  56 S13       29.97F HX  92
PONCA CITY     SUNNY     84  70  62 S10G20    29.94F
MCALESTER      MOSUNNY   84  71  65 S10G17    30.02F
OKLAHOMA CITY  MOSUNNY   83  69  62 S16       29.97F

......IOWA............

CITY           SKY/WX    TMP DP  RH WIND       PRES   REMARKS
DES MOINES     MOSUNNY   87  70  56 S21       29.94S HX  92
QUAD CITIES    SUNNY     89  69  51 S12       30.02F HX  93

......ILLINOIS........

CITY           SKY/WX    TMP DP  RH WIND       PRES   REMARKS
QUINCY         SUNNY     89  69  51 S10       30.04F HX  93
CHICAGO        MOSUNNY   91  65  41 SW13      30.07S HX  93



USA.gov is the U.S. government's official web portal to all federal, state and local government web resources and services.